Location: Unspecified
(42.9300°N, 71.1866°W)
Time: 05:18:54
(UTC-04:00)

ISS - Visible Passes

Search period start: 28 May 2018 00:00
Search period end: 07 June 2018 00:00
Orbit: 402 x 407 km, 51.6° (Epoch: 28 May)

Date Brightness Start Highest point End Pass type
(mag) Time Alt. Az. Time Alt. Az. Time Alt. Az.
28 May -1.0 21:13:46 10° NW 21:16:12 19° N 21:18:37 10° NE visible
28 May -1.4 22:50:56 10° NW 22:53:31 21° NNE 22:55:34 13° ENE visible
29 May -1.3 00:27:10 10° NW 00:28:12 19° NW 00:28:12 19° NW visible
29 May -1.1 21:58:40 10° NW 22:01:03 18° N 22:03:25 10° NE visible
29 May -2.4 23:35:01 10° NW 23:37:36 38° N 23:37:36 38° N visible
30 May -1.1 21:06:14 10° NW 21:08:33 17° N 21:10:51 10° NE visible
30 May -2.0 22:42:51 10° NW 22:45:46 29° NNE 22:47:01 22° ENE visible
31 May -1.0 00:19:12 10° WNW 00:19:39 13° WNW 00:19:39 13° WNW visible
31 May -1.6 21:50:40 10° NW 21:53:20 22° NNE 21:55:59 10° ENE visible
31 May -2.6 23:26:53 10° NW 23:29:06 39° NW 23:29:06 39° NW visible
01 Jun -1.3 20:58:24 10° NW 21:00:50 19° N 21:03:16 10° ENE visible
01 Jun -3.1 22:34:40 10° NW 22:37:52 49° NNE 22:38:34 41° ENE visible
02 Jun -2.4 21:42:29 10° NW 21:45:29 32° NNE 21:48:03 13° E visible
02 Jun -2.1 23:18:55 10° WNW 23:20:41 26° W 23:20:41 26° W visible
03 Jun -1.9 20:50:17 10° NW 20:53:03 24° NNE 20:55:47 10° ENE visible
03 Jun -4.0 22:26:31 10° WNW 22:29:47 78° SW 22:30:12 63° SSE visible
04 Jun -3.5 21:34:14 10° NW 21:37:29 59° NNE 21:39:45 18° ESE visible
04 Jun -1.4 23:11:22 10° W 23:12:23 15° WSW 23:12:23 15° WSW visible
05 Jun -2.8 22:18:33 10° WNW 22:21:32 32° SW 22:21:58 31° SSW visible
06 Jun -3.6 21:26:03 10° WNW 21:29:17 62° SW 21:31:34 18° SE visible
